TimeEDT,TemperatureF,Dew PointF,Humidity,Sea Level PressureIn,VisibilityMPH,Wind Direction,Wind SpeedMPH,Gust SpeedMPH,PrecipitationIn,Events,Conditions,WindDirDegrees,DateUTC
12:58 AM,76.1,76.1,100,29.94,10.0,SE,11.5,-,N/A,,Partly Cloudy,130,2013-09-24 04:58:00
1:53 AM,75.2,75.2,100,29.94,10.0,South,12.7,-,N/A,,Mostly Cloudy,170,2013-09-24 05:53:00
1:58 AM,75.2,75.2,100,29.95,10.0,South,12.7,-,N/A,,Scattered Clouds,170,2013-09-24 05:58:00
2:15 AM,77.0,77.0,100,29.94,10.0,South,11.5,-,N/A,Rain,Light Rain,180,2013-09-24 06:15:00
2:53 AM,75.2,75.2,100,29.93,9.0,South,15.0,21.9,N/A,,Partly Cloudy,180,2013-09-24 06:53:00
2:56 AM,75.2,75.2,100,29.93,10.0,South,15.0,-,N/A,Rain,Light Rain,180,2013-09-24 06:56:00
2:58 AM,75.2,75.2,100,29.94,10.0,South,15.0,-,0.12,Rain,Light Rain,180,2013-09-24 06:58:00
3:58 AM,75.4,75.4,100,29.93,10.0,South,9.2,-,0.12,Rain,Light Rain,180,2013-09-24 07:58:00
4:58 AM,75.6,75.6,100,29.91,10.0,SSE,12.7,-,0.06,,Light Drizzle,160,2013-09-24 08:58:00
4:59 AM,75.2,75.2,100,29.90,10.0,SSE,12.7,-,N/A,,Clear,160,2013-09-24 08:59:00
5:32 AM,75.2,75.2,100,29.91,10.0,South,10.4,-,N/A,,Light Drizzle,170,2013-09-24 09:32:00
5:58 AM,75.7,75.7,100,29.92,10.0,South,13.8,-,0.02,Rain,Light Rain,190,2013-09-24 09:58:00
6:58 AM,76.1,76.1,100,29.93,6.0,South,10.4,-,0.24,Rain,Rain,190,2013-09-24 10:58:00
7:58 AM,76.3,76.3,100,29.95,4.0,South,9.2,-,0.22,Rain,Rain,170,2013-09-24 11:58:00
8:29 AM,77.0,77.0,100,29.94,4.0,SSW,10.4,-,N/A,Rain,Rain,200,2013-09-24 12:29:00
8:33 AM,77.0,77.0,100,29.95,3.0,South,8.1,-,N/A,Rain,Rain,180,2013-09-24 12:33:00
8:37 AM,77.0,77.0,100,29.95,4.0,SSW,11.5,-,N/A,Rain,Rain,210,2013-09-24 12:37:00
8:58 AM,76.3,76.3,100,29.95,4.0,SW,11.5,-,0.34,Rain,Rain,230,2013-09-24 12:58:00
9:58 AM,74.5,74.5,100,29.98,5.0,WSW,6.9,-,0.30,Rain,Rain,240,2013-09-24 13:58:00
10:39 AM,75.2,75.2,100,29.97,5.0,WSW,6.9,-,N/A,Rain-Thunderstorm,Thunderstorms and Rain,240,2013-09-24 14:39:00
10:58 AM,75.2,75.2,100,29.98,5.0,SW,5.8,-,N/A,Rain-Thunderstorm,Rain,230,2013-09-24 14:58:00
11:05 AM,73.4,73.4,100,29.97,10.0,SW,5.8,-,N/A,Rain-Thunderstorm,Light Thunderstorms and Rain,220,2013-09-24 15:05:00
11:20 AM,73.4,73.4,100,29.95,10.0,SSW,6.9,-,N/A,Rain,Light Rain,210,2013-09-24 15:20:00
11:21 AM,73.4,73.4,100,29.94,10.0,SSW,6.9,-,N/A,Rain,Light Rain,210,2013-09-24 15:21:00
11:58 AM,75.2,75.2,100,29.92,10.0,South,11.5,-,N/A,,Mostly Cloudy,190,2013-09-24 15:58:00
12:58 PM,77.5,77.5,100,29.93,10.0,SSW,8.1,-,0.00,,Partly Cloudy,200,2013-09-24 16:58:00
1:58 PM,78.8,77.7,96,29.92,10.0,SSW,11.5,-,N/A,,Partly Cloudy,200,2013-09-24 17:58:00
2:58 PM,79.3,76.5,91,29.90,10.0,South,11.5,-,N/A,,Clear,190,2013-09-24 18:58:00
3:58 PM,78.8,77.0,94,29.91,10.0,South,10.4,-,N/A,,Mostly Cloudy,190,2013-09-24 19:58:00
4:08 PM,78.8,77.0,94,29.90,10.0,SSW,12.7,-,N/A,,Mostly Cloudy,200,2013-09-24 20:08:00
4:28 PM,78.8,77.0,94,29.89,10.0,South,10.4,-,N/A,,Scattered Clouds,180,2013-09-24 20:28:00
4:58 PM,79.2,76.8,92,29.89,10.0,SSW,9.2,-,N/A,,Scattered Clouds,200,2013-09-24 20:58:00
5:58 PM,79.3,78.1,96,29.88,10.0,South,10.4,-,N/A,,Scattered Clouds,190,2013-09-24 21:58:00
6:03 PM,78.8,78.8,100,29.87,10.0,SSW,10.4,-,N/A,,Mostly Cloudy,200,2013-09-24 22:03:00
6:18 PM,80.6,78.8,94,29.86,10.0,SSW,12.7,-,N/A,,Mostly Cloudy,210,2013-09-24 22:18:00
6:28 PM,80.6,78.8,94,29.86,10.0,SSW,11.5,-,N/A,,Scattered Clouds,210,2013-09-24 22:28:00
6:58 PM,79.7,78.3,95,29.88,10.0,SW,12.7,-,N/A,,Partly Cloudy,220,2013-09-24 22:58:00
7:33 PM,80.6,77.0,89,29.89,10.0,SW,15.0,-,N/A,,Mostly Cloudy,220,2013-09-24 23:33:00
7:38 PM,80.6,77.0,89,29.89,10.0,SW,13.8,-,N/A,,Scattered Clouds,220,2013-09-24 23:38:00
7:58 PM,79.7,77.9,94,29.90,10.0,SW,11.5,-,N/A,,Partly Cloudy,220,2013-09-24 23:58:00
8:32 PM,78.8,77.0,94,29.89,10.0,SW,12.7,-,N/A,Rain,Light Rain,220,2013-09-25 00:32:00
8:42 PM,78.8,77.0,94,29.88,10.0,SSW,12.7,-,N/A,,Partly Cloudy,210,2013-09-25 00:42:00
8:58 PM,79.0,77.2,94,29.89,10.0,SSW,11.5,-,0.00,,Clear,210,2013-09-25 00:58:00
9:28 PM,78.8,78.8,100,29.89,10.0,SSE,6.9,-,N/A,,Mostly Cloudy,160,2013-09-25 01:28:00
9:58 PM,78.8,78.8,100,29.91,10.0,SSE,6.9,-,N/A,,Mostly Cloudy,160,2013-09-25 01:58:00
10:58 PM,78.3,78.3,100,29.90,10.0,South,6.9,-,N/A,,Scattered Clouds,190,2013-09-25 02:58:00
11:03 PM,78.8,78.8,100,29.88,10.0,South,8.1,-,N/A,,Mostly Cloudy,180,2013-09-25 03:03:00
11:08 PM,78.8,78.8,100,29.88,10.0,South,5.8,-,N/A,,Scattered Clouds,190,2013-09-25 03:08:00
11:12 PM,78.8,78.8,100,29.88,10.0,SSW,5.8,-,N/A,Rain,Light Rain,200,2013-09-25 03:12:00
11:30 PM,78.8,78.8,100,29.87,10.0,South,6.9,-,N/A,,Partly Cloudy,190,2013-09-25 03:30:00
11:58 PM,79.0,79.0,100,29.89,10.0,SW,10.4,-,0.00,,Clear,230,2013-09-25 03:58:00